DateTimeUTC,F1_A11,F1_S11,BsB_S11,BsG_S11,BsR_S11,BbsB_S11,BbsG_S11,BbsR_S11,BaB_A11,BaG_A11,BaR_A11,Tu_S11,T_S11,Uu_S11,U_S11,P_S11,T1_A11
2021-02-08T22:00:00Z,00000200,21000000,,,,,,,0000.32,0000.07,0000.16,16.2,23.5,,00.0,0654.7,31.0
2021-02-08T22:01:00Z,00000200,21000000,,,,,,,0000.09,-000.13,-000.24,16.2,23.5,,00.0,0654.7,31.0
2021-02-08T22:02:00Z,00000200,21000000,,,,,,,-000.28,0000.06,0000.36,16.1,23.5,,00.0,0654.7,31.0
2021-02-08T22:03:00Z,00000200,61000000,,,,,,,0001.77,0001.87,0001.33,16.1,23.5,,00.0,0654.7,31.0
2021-02-08T22:04:00Z,00000200,41000000,0000.66,0000.36,0000.36,0000.15,0000.22,0000.13,0004.09,0003.51,0002.76,16.2,23.3,,00.0,0655.5,31.0
2021-02-08T22:05:00Z,00000200,01000000,0000.59,0000.51,0000.40,-000.05,0000.10,0000.09,0010.39,0008.96,0006.89,16.3,23.2,,00.0,0655.5,31.0
2021-02-08T22:06:00Z,00000200,01000000,0000.17,0000.25,0000.37,0000.10,0000.03,0000.11,0006.72,0006.73,0004.81,16.3,23.2,,00.0,0655.5,30.9
2021-02-08T22:07:00Z,00000200,01000000,0000.25,0000.22,0000.05,-000.15,0000.20,-000.10,0002.60,0001.84,0001.54,16.4,23.2,,00.0,0655.5,31.0
2021-02-08T22:08:00Z,00000200,01000000,0000.39,0000.30,0000.20,-000.72,-000.04,0000.39,0001.23,0001.12,0000.73,16.5,23.3,,00.0,0655.5,31.0
2021-02-08T22:09:00Z,00000200,01000000,0000.44,0000.17,0000.11,-000.06,-000.28,-000.20,0005.15,0004.85,0003.49,16.5,23.3,,00.0,0655.5,31.0
2021-02-08T22:10:00Z,00000200,01000000,0000.48,0000.75,0000.41,0000.21,0000.10,0000.24,0014.81,0013.23,0009.98,16.7,23.4,,00.0,0655.5,31.0
2021-02-08T22:11:00Z,00000200,01000000,0000.60,0001.08,0000.41,0000.30,0000.02,0000.46,0017.31,0015.56,0011.76,16.7,23.4,,00.0,0655.5,31.0
2021-02-08T22:12:00Z,00000200,01000000,0000.22,0000.63,0000.46,-000.70,0000.13,0000.23,0011.27,0010.32,0007.89,16.7,23.4,,00.0,0655.5,31.0
2021-02-08T22:13:00Z,00000200,01000000,0000.10,0000.27,0000.24,-000.02,0000.10,0000.05,0008.69,0007.79,0005.62,16.7,23.4,,00.0,0655.5,31.0
2021-02-08T22:14:00Z,00000200,01000000,0001.24,0000.48,0000.36,0000.56,-000.03,0000.03,0015.76,0013.92,0011.04,16.7,23.4,,00.0,0655.5,31.0
2021-02-08T22:15:00Z,00000200,01000000,0000.23,0000.21,0000.30,0000.17,0000.14,-000.04,0013.17,0011.95,0008.97,16.6,23.3,,00.0,0655.5,31.0
2021-02-08T22:16:00Z,00000200,01000000,0000.29,0000.10,-000.06,-000.12,0000.22,0000.31,0002.02,0002.05,0001.14,16.6,23.3,,00.0,0655.5,31.0
2021-02-08T22:17:00Z,00000200,01000000,0000.32,0000.27,-000.21,0000.13,-000.25,0000.05,0000.58,0000.30,0000.44,16.6,23.3,,00.0,0655.5,31.0
2021-02-08T22:18:00Z,00000200,01000000,-000.83,-000.09,0000.03,-000.12,-000.16,0000.19,0000.40,0000.45,0000.10,16.5,23.3,,00.0,0655.5,31.0
2021-02-08T22:19:00Z,00000200,01000000,0001.19,0000.08,0000.44,0000.11,-000.07,0000.32,0006.17,0005.42,0004.02,16.5,23.3,,00.0,0655.5,31.0
2021-02-08T22:20:00Z,00000200,01000000,0000.84,0000.57,0000.13,0000.38,0000.11,0000.10,0010.81,0009.76,0007.49,16.5,23.2,,00.0,0655.5,31.0
2021-02-08T22:21:00Z,00000200,01000000,0001.00,0000.57,0000.46,0000.72,-000.04,0000.19,0010.22,0009.18,0007.00,16.5,23.2,,00.0,0655.4,31.0
2021-02-08T22:22:00Z,00000200,01000000,0000.96,0000.44,0000.22,0000.27,-000.16,0000.49,0011.07,0010.04,0007.24,16.5,23.3,,00.0,0655.4,31.0
2021-02-08T22:23:00Z,00000200,01000000,0001.07,0000.38,0000.52,0000.37,0000.03,0000.30,0012.54,0011.30,0008.47,16.6,23.3,,00.0,0655.4,31.0
2021-02-08T22:24:00Z,00000200,01000000,0000.06,0000.34,0000.29,-000.03,0000.10,0000.24,0001.79,0001.42,0001.52,16.7,23.3,,00.0,0655.4,31.0
2021-02-08T22:25:00Z,00000200,01000000,0000.54,0000.14,0000.37,-000.22,0000.20,0000.36,0000.36,0000.56,0000.19,16.7,23.4,,00.0,0655.3,31.0
2021-02-08T22:26:00Z,00000200,01000000,-000.62,0000.01,-000.00,0000.30,-000.03,0000.15,0000.46,0000.18,0000.27,16.7,23.4,,00.0,0655.3,31.0
2021-02-08T22:27:00Z,00000200,01000000,0000.61,0000.44,-000.06,0000.43,-000.02,0000.43,0000.47,0000.51,0000.41,16.7,23.4,,00.0,0655.2,31.0
2021-02-08T22:28:00Z,00000200,01000000,0000.03,0000.28,0000.42,-000.04,-000.00,0000.06,0000.62,0000.49,0000.31,16.7,23.3,,00.0,0655.2,31.0
2021-02-08T22:29:00Z,00000200,01000000,0000.83,0000.24,0000.10,0000.06,0000.03,0000.08,0000.51,0000.57,0000.30,16.6,23.3,,00.0,0655.2,31.0
2021-02-08T22:30:00Z,00000200,01000000,0000.68,0000.32,0000.16,0000.03,0000.14,0000.01,0000.41,0000.54,0000.45,16.6,23.3,,00.0,0655.2,31.0
2021-02-08T22:31:00Z,00000200,01000000,0000.93,0000.19,0000.38,0000.33,-000.02,0000.37,0000.37,-000.00,-000.09,16.5,23.3,,00.0,0655.2,31.0
2021-02-08T22:32:00Z,00000200,01000000,0001.19,0000.35,0000.53,-000.67,0000.26,-000.04,0000.74,0000.30,0000.34,16.5,23.2,,00.0,0655.2,31.0
2021-02-08T22:33:00Z,00000200,01000000,0001.50,0000.40,0000.24,-000.10,0000.10,0000.20,0000.54,0000.75,0000.66,16.5,23.2,,00.0,0655.1,31.0
2021-02-08T22:34:00Z,00000200,01000000,0000.63,0000.50,-000.00,-000.14,-000.12,0000.04,0000.75,0000.41,0000.40,16.5,23.2,,00.0,0655.1,31.0
2021-02-08T22:35:00Z,00000200,01000000,0000.18,0000.49,0000.22,0000.03,-000.09,0000.37,0000.40,0000.84,0000.68,16.4,23.2,,00.0,0655.1,31.0
2021-02-08T22:36:00Z,00000200,01000000,0001.32,0000.25,0000.34,0000.02,0000.12,0000.24,0000.36,0000.16,-000.23,16.5,23.2,,00.0,0655.1,31.0
2021-02-08T22:37:00Z,00000200,01000000,0000.22,0000.40,0000.31,0000.06,-000.16,0000.25,0000.34,0000.15,0000.50,16.5,23.2,,00.0,0655.2,31.0
2021-02-08T22:38:00Z,00000200,01000000,0000.57,0000.10,0000.04,-000.02,0000.04,0000.09,0000.26,0000.34,-000.19,16.6,23.3,,00.0,0655.2,31.0
2021-02-08T22:39:00Z,00000200,01000000,0000.99,0000.50,0000.03,0000.15,0000.09,0000.24,0000.24,0000.29,-000.03,16.6,23.3,,00.0,0655.2,31.0
2021-02-08T22:40:00Z,00000200,01000000,0001.22,0000.46,0000.20,0000.18,-000.00,-000.08,0000.00,0000.29,0000.45,16.6,23.3,,00.0,0655.2,31.0
2021-02-08T22:41:00Z,00000200,01000000,0000.94,0000.64,0000.12,0000.45,0000.20,0000.08,0000.21,-000.37,-000.19,16.6,23.3,,00.0,0655.2,31.0
2021-02-08T22:42:00Z,00000200,01000000,0000.49,0000.15,0000.39,0000.01,-000.18,-000.04,0000.14,0000.50,0000.38,16.6,23.3,,00.0,0655.2,31.0
2021-02-08T22:43:00Z,00000200,01000000,0000.74,0000.53,0000.11,-000.35,-000.17,0000.24,0000.07,0000.00,-000.23,16.6,23.2,,00.0,0655.3,31.0
2021-02-08T22:44:00Z,00000200,01000000,-000.09,0000.05,0000.05,0000.26,-000.05,0000.04,0000.20,-000.30,-000.10,16.5,23.2,,00.0,0655.3,31.0
2021-02-08T22:45:00Z,00000200,01000000,-000.20,0000.20,0000.35,0000.21,-000.14,0000.30,0000.02,0000.32,0000.24,16.5,23.2,,00.0,0655.3,31.0
2021-02-08T22:46:00Z,00000200,01000000,0000.62,0000.20,0000.36,0000.32,0000.23,0000.23,-000.20,0000.22,-000.04,16.5,23.2,,00.0,0655.3,31.0
2021-02-08T22:47:00Z,00000200,01000000,0001.03,0000.19,0000.23,0000.09,-000.16,0000.03,0000.43,0000.10,0000.20,16.4,23.2,,00.0,0655.3,31.0
2021-02-08T22:48:00Z,00000200,01000000,0001.10,0000.50,0000.28,0000.20,-000.21,0000.13,0000.29,0000.14,0000.13,16.4,23.2,,00.0,0655.3,31.0
2021-02-08T22:49:00Z,00000200,01000000,0000.24,-000.00,-000.08,0000.48,-000.09,0000.03,-000.02,-000.06,0000.21,16.4,23.1,,00.0,0655.3,31.0
2021-02-08T22:50:00Z,00000200,01000000,0000.63,0000.15,0000.29,0000.58,0000.16,0000.15,0000.17,0000.38,0000.02,16.3,23.1,,00.0,0655.4,30.9
2021-02-08T22:51:00Z,00000200,01000000,0000.10,0000.22,0000.19,-000.29,-000.10,-000.04,0000.25,0000.01,0000.02,16.4,23.1,,00.0,0655.4,30.9
2021-02-08T22:52:00Z,00000200,01000000,0000.98,0000.50,-000.18,-000.01,0000.15,0000.27,0000.27,0000.05,0000.09,16.4,23.1,,00.0,0655.4,31.0
2021-02-08T22:53:00Z,00000200,01000000,-000.40,-000.13,-000.11,0000.07,-000.02,0000.09,0000.01,0000.51,0000.02,16.5,23.2,,00.0,0655.4,31.0
2021-02-08T22:54:00Z,00000200,01000000,0000.17,-000.24,0000.25,0000.69,0000.05,0000.15,-000.23,-000.49,-000.02,16.6,23.2,,00.0,0655.5,31.0
2021-02-08T22:55:00Z,00000200,01000000,-000.31,0000.23,0000.14,0000.26,0000.01,0000.36,-000.06,0000.05,0000.22,16.7,23.3,,00.0,0655.5,31.0
2021-02-08T22:56:00Z,00000200,01000000,0000.30,0000.16,0000.24,0000.03,-000.00,-000.02,0000.27,0000.51,-000.33,16.7,23.3,,00.0,0655.5,31.0
2021-02-08T22:57:00Z,00000200,41000000,,,,,,,-000.59,-000.62,0000.14,16.7,23.3,,00.0,0655.6,31.0
2021-02-08T22:58:00Z,00000200,61000000,,,,,,,-000.19,-000.34,-000.20,16.3,23.4,,00.0,0654.7,31.0
2021-02-08T22:59:00Z,00000200,21000000,,,,,,,-000.02,0000.05,-000.05,16.3,23.5,,00.0,0654.6,31.0
